Flag for Ethiopia Weather past 2 weeks in Addis Ababa, Ethiopia

Now
72 °F

Scattered clouds.


Feels Like: 75 °F
Forecast: 43 / 72 °F
Wind: 7 mph from South

Location: Addis Ababa Airport

Current Time: Oct 20, 2014 at 1:05:06 PM

Latest Report: Oct 20, 2014 at 12:00 PM


Visibility: N/A

Pressure: 30.30 "Hg

Humidity: 65%

Dew point: 59 °F

Location of Addis AbabaLocation

Historic Weather in Addis Ababa — Graph

°F

Addis Ababa temperature yesterday

Maximum temperature yesterday: 72 °F (at 2:00 PM)
Minimum temperature yesterday: 54 °F (at 5:00 AM)
Average temperature yesterday: 63 °F

Past Weeks' High & Low Weather Summary

 TemperatureHumidityPressure
High73 °F (Oct 8, 2:00 PM)88% (Oct 6, 6:00 AM)30.45 "Hg (Oct 6, 6:00 AM)
Low52 °F (Oct 17, 5:00 AM)43% (Oct 12, 6:00 AM)30.21 "Hg (Oct 8, 4:00 PM)
Average62 °F66%30.34 "Hg
* Reported Oct 5 11:00 AM — Oct 20 11:00 AM, Addis Ababa, Weather by CustomWeather, © 2014

Note: Actual official high and low records may vary slightly from our data, if they occured in-between our weather recording intervals... More about our weather records

Advertising

Addis Ababa weather history for previous 24 hours

 ConditionsComfort  
Time TempWeatherWind HumidityBarometerVisibility
11:00 AM
Oct 20
66 °FScattered clouds.7 mph68%30.36 "HgN/A
10:00 AM64 °FPassing clouds.12 mph73%30.36 "HgN/A
9:00 AM63 °FScattered clouds.9 mph68%30.39 "HgN/A
8:00 AM57 °FScattered clouds.5 mph77%30.39 "HgN/A
6:00 AM57 °FPassing clouds.5 mph63%30.33 "HgN/A
5:00 AM57 °FPassing clouds.5 mph72%30.30 "HgN/A
4:00 AM59 °FCool.No wind63%30.30 "HgN/A
3:00 AM59 °FCool.No wind63%30.27 "HgN/A
2:00 AM59 °FPassing clouds.5 mph51%30.30 "HgN/A
1:00 AM61 °FPassing clouds.2 mph55%30.33 "HgN/A
12:00 AM61 °FPassing clouds.9 mph55%30.33 "HgN/A
11:00 PM
Oct 19
61 °FPassing clouds.5 mph55%30.33 "HgN/A
10:00 PM61 °FPassing clouds.7 mph55%30.36 "HgN/A
9:00 PM63 °FPassing clouds.9 mph56%30.33 "HgN/A
8:00 PM63 °FPassing clouds.12 mph56%30.30 "HgN/A
7:00 PM64 °FPassing clouds.14 mph52%30.27 "HgN/A
6:00 PM68 °FPassing clouds.12 mph53%30.24 "HgN/A
5:00 PM72 °FPartly sunny.16 mph47%30.24 "HgN/A
4:00 PM72 °FPartly sunny.14 mph44%30.21 "HgN/A
2:00 PM72 °FPartly sunny.12 mph57%30.27 "HgN/A
1:00 PM70 °FPartly sunny.14 mph53%30.30 "HgN/A
Weather by CustomWeather, © 2014

See weather overviewHow to use our weather pages